User: anonymous   Login
Location: Palomar Mountain Lodge
(33.3110°N, 116.8495°W)
Time: 18:35:09
(UTC-07:00)
Language:

Cosmos 1758 Rocket - Orbit

View from above orbital plane
View from above orbital plane
View from above satellite
View from above satellite

Ground track
Ground track

The orbit data is extracted from the following two-line orbital elements,

1 16792U 86046B   19286.82145288  .00000083  00000-0  72020-5 0  9990
2 16792  82.4799 123.8384 0024760  22.1125  55.6923 14.83223123800677
Epoch (UTC): 13 October 2019 19:42:53
Eccentricity: 0.0024760
inclination: 82.4799°
perigee height: 602 km
apogee height: 636 km
right ascension of ascending node: 123.8384°
argument of perigee: 22.1125°
revolutions per day: 14.83223123
mean anomaly at epoch: 55.6923°
orbit number at epoch: 80067

The dashed part of the orbit path shows where the satellite is in the earth's shadow,  

DLR